星链-11288 (STARLINK-11288)

导读

STARLINK-11288是美国太空探索技术公司SpaceX于2024年9月5日发射的星链(Starlink)项目卫星,属于全球规模最大的低轨卫星互联网星座的组成部分。它运行于近地轨道,配备激光通信与自动防撞系统,依托氪动力离子推进调整轨道,为全球提供高速低时延宽带互联网服务,覆盖偏远区域、海事、航空等场景,支撑星链星座持续组网扩展。

基本信息
目录编号:
61002
目录名称:
STARLINK-11288
国际标识:
2024-158N
轨道中心:
EARTH
卫星名称:
星链-11288
卫星全名:
星链-11288 (STARLINK-11288)
卫星状态:
在轨 (已飞行647 天)
发射日期:
2024-09-05 UTC
国别 :
美国 (US)
星等 :
--
轨道信息
数据来源 国际轨道数据
星历时间: 2026-06-13T15:13:57+0800
1天前
查看轨道信息
半长轴: 6737.839km
偏心率: 0.0001632
轨道倾角: 53.159°
近地点辐角 57.144°
升交点赤经 169.769°
平近点角 302.974°
近地点: 358.602km
远地点: 360.802km
周期: 91.736分钟
每日圈数: 15.697189
详细信息
固有亮度:
5
最大亮度:
2.5
卫星平台:
Starlink V1.0
覆盖范围:
全球
运营商:
太空探索技术公司
运营商所在国:
美国
制造商(研发单位):
太空探索技术公司
制造商所在国:
美国
使用方式:
暂无
卫星简介
Starlink 计划是 SpaceX 推出的全球卫星互联网项目,通过发射低轨道卫星,为全球尤其是偏远地区提供高速、低延迟的互联网服务。自 2019 年起,Starlink 已部署数千颗卫星,旨在缩小全球数字鸿沟,推动互联网普及。该项目还为军事、航空等行业提供通信支持,带来广泛经济效益。
2D轨道图
3D轨道图
轨道高度分析图
轨道倾角分析图
轨道综合分析图
查看轨道综合分析图